Location: Austin
(30.3000°N, 97.7500°W)
Time: 22:46:21
(UTC-05:00)

ASTEX 1 - Pass Details

Date: 06 May 2026
Orbit: 713 x 733 km, 92.7° (Epoch: 13 May)

Event Time Altitude Azimuth Distance (km) Brightness Sun altitude
Exits shadow 21:34:23 20° 163° (SSE) 1,662 4.8 -16.8°
Maximum altitude 21:37:50 71° 82° (E) 774 3.3 -17.4°
Drops below altitude 10° 21:42:45 10° 359° (N) 2,236 6.3 -18.3°
Sets 21:45:03 0° 358° (N) 3,162 7.2 -18.7°
